Location: ??????
(55.7522°N, 37.6156°E)
Time: 18:13:06
(UTC+00:00)

Cosmos 2344 - Pass Details

Date: 14 June 2025
Orbit: 1200 x 3043 km, 63.3° (Epoch: 12 July)

Event Time Altitude Azimuth Distance (km) Brightness Sun altitude
Rises 19:19:32 0° 306° (NW) 4,147 7.7 -6.2°
Reaches altitude 10° 19:22:03 10° 307° (NW) 3,239 7.0 -6.4°
Maximum altitude 19:29:42 87° 37° (NE) 1,453 3.9 -6.9°
Drops below altitude 10° 19:39:47 10° 129° (SE) 4,193 5.7 -7.5°
Enters shadow 19:42:06 - 129° (SE) 4,975 6.1 -7.7°
